COSMOS 1275 DEB, 42114

Orbit data source: Space-Track

COSMOS 1275 DEB, 42114 is space debris in LEO originally from a launch on Thu, 04 Jun 1981 UTC launched from the Plesetsk Missile And Space Complex (PKMTR). Debris objects in space refer to the collection of defunct objects orbiting the Earth. Examples of debris include non-operational satellites, rocket bodies, and fragments generated from explosions, collisions, or faulty payload assembly.

Loading next visibility...
Identifier
42114, 1981-053QA
Orbit
LEO
Country
Flag of CISCIS
Related business
Manufacturer
Unknown
Mission
Spacecraft
Bus & Motor
Unknown
Mass
Unknown
Launch date (UTC)
1981-06-04 (45 years ago)
Launch vehicle
Unknown
Launch site
Plesetsk Missile And Space Complex (PKMTR)
Object type
Payload
Rocket body
Debris
Shape & HBR
Unknown shape, 0.1 m
Radar Cross Section
Small (<0.1 m²)

Expand to show TLE details & history
Last TLE update: 1 day ago

TLE from 1 day ago
0 COSMOS 1275 DEB
1 42114U 81053QA  26104.12509574  .00003812  00000-0  11824-2 0  9997
2 42114  82.8154 343.8440 0034794 130.7898  21.1008 14.40591730641884
Epoch: 2026-04-14T03:00Z
TLE epoch observation values (Epoch: 2026-04-14T03:00:08.271Z)
Latitude
27.76891°
Longitude
-87.28167°
Altitude
736.861 km
Speed
7.501 km/s
True Right ascension
10h 40m 14s
True Declination
27° 37' 37"
Sunlit
Object was in full shadow at epoch
Visualization orbit readout
Latitude
Unknown
Longitude
Unknown
Altitude
Unknown
Speed
Unknown
Apparent Right ascension
Unknown
Apparent Declination
Unknown
Sunlit
N/A
Visualization observer readout
Local Sidereal Time
10:37:26
Azimuth
Unknown
Elevation
Unknown
Doppler factor
Unknown
Orbital elements
Apogee altitude
778.422 km
Perigee altitude
728.793 km
Semi-major axis
7,131.745 km
Eccentricity
0.00348
Inclination
82.8154°
RAAN
343.844°
Arg. of periapsis
130.7898°
True anomaly
21.24492°
Mean anomaly
21.1008°
Eccentric anomaly
21.1728°
Mean motion
3.60371 °/min
Orbital period
99.9 mins
BSTAR
0.0011824
Loading maneuver chart data...
Computing Atmospheric mass density...
Loading historical data...
Loading historical data...
Loading historical data...
Loading historical data...
Loading historical data...
Loading historical data...
Loading historical data...

Documentation

Showing up to 5 results
|